Location: Nairn
(57.5833°N, 3.8667°W)
Time: 02:54:36
(UTC+00:00)

Transit 2A - Pass Details

Date: 01 December 2020
Orbit: 598 x 960 km, 66.7° (Epoch: 20 January)

Event Time Altitude Azimuth Distance (km) Brightness Sun altitude
Rises 21:10:21 0° 283° (WNW) 3,539 10.2 -42.5°
Reaches altitude 10° 21:13:13 10° 292° (WNW) 2,549 9.3 -42.8°
Enters shadow 21:15:05 19° 304° (NW) 1,974 8.6 -43.1°
